This demonstration page uses our WeatherBlox Daily Observations layout. Learn more.

Left ArrowRight Arrow

41.86663, -103.66717

Hourly Observations for August 14, 2022

Temp ( °F °C ) Dew Point ( °F °C ) Humidity (%) Winds ( mph kmh ) Pressure ( in mb ) Visibility ( mi km ) Precip ( " mm )
12:53 am 00:53 Clear 72 22.2 63 17.2 73 73 NNE 7 11 29.95 1014 10 16 0.00 0.00
1:53 am 01:53 Clear 73 22.8 63 17.2 71 71 ENE 5 7 29.93 1014 10 16 0.00 0.00
2:53 am 02:53 Clear 72 22.2 61 16.1 68 68 ENE 10 17 29.92 1013 10 16 0.00 0.00
3:53 am 03:53 Clear 69 20.6 62 16.7 78 78 ENE 7 11 29.93 1014 10 16 0.00 0.00
4:53 am 04:53 Clear 69 20.6 61 16.1 75 75 ESE 5 7 29.92 1013 10 16 0.00 0.00
5:45 am 05:45 Mostly Cloudy 66 18.9 61 16.1 84 84 Calm 29.93 1013 10 16 0.00 0.00
5:53 am 05:53 Mostly Cloudy 67 19.4 61 16.1 81 81 Calm 29.93 1014 10 16 0.00 0.00
6:07 am 06:07 Partly Cloudy 66 18.9 61 16.1 84 84 N 5 7 29.93 1013 10 16 0.00 0.00
6:20 am 06:20 Mostly Cloudy 66 18.9 61 16.1 84 84 N 3 6 29.93 1013 10 16 0.00 0.00
6:53 am 06:53 Partly Cloudy 68 20 62 16.7 81 81 Calm 29.95 1014 10 16 0.00 0.00
7:08 am 07:08 Mostly Cloudy 69 20.6 62 16.7 78 78 Calm 29.90 1013 10 16 0.00 0.00
7:53 am 07:53 Cloudy 71 21.7 62 16.7 73 73 Calm 29.96 1015 10 16 0.00 0.00
8:53 am 08:53 Mostly Cloudy 74 23.3 63 17.2 69 69 Calm 29.95 1014 10 16 0.00 0.00
9:31 am 09:31 Partly Cloudy 77 25 64 17.8 64 64 VRB 3 6 29.85 1011 10 16 0.00 0.00
9:53 am 09:53 Sunny 77 25 63 17.2 62 62 W 3 6 29.96 1014 10 16 0.00 0.00
10:53 am 10:53 Sunny 79 26.1 64 17.8 60 60 NNW 8 13 29.96 1015 10 16 0.00 0.00
11:53 am 11:53 Sunny 83 28.3 65 18.3 55 55 VRB 3 6 29.93 1014 10 16 0.00 0.00
12:53 pm 12:53 Sunny 86 30 65 18.3 50 50 NW 6 9 29.91 1013 10 16 0.00 0.00
1:53 pm 13:53 Sunny 89 31.7 64 17.8 44 44 VRB 5 7 29.89 1012 10 16 0.00 0.00
2:53 pm 14:53 Sunny 92 33.3 64 17.8 40 40 undefined N/A 29.87 1011 10 16 0.00 0.00
3:53 pm 15:53 Sunny 92 33.3 60 15.6 35 35 ENE 7 11 29.84 1011 10 16 0.00 0.00
4:53 pm 16:53 Sunny 92 33.3 58 14.4 32 32 ESE 7 11 29.84 1010 10 16 0.00 0.00
5:53 pm 17:53 Sunny 89 31.7 62 16.7 41 41 SSE 7 11 29.84 1011 10 16 0.00 0.00
6:53 pm 18:53 Mostly Cloudy 88 31.1 62 16.7 42 42 SSE 6 9 29.84 1010 10 16 0.00 0.00
7:43 pm 19:43 Mostly Cloudy with Light Rain 76 24.4 59 15 56 56 W 21 33 29.75 1008 10 16 0.01 0.13
7:53 pm 19:53 Mostly Cloudy with Nearby Thunderstorms 75 23.9 59 15 57 57 WNW 16 26 29.87 1012 10 16 0.01 0.13
8:04 pm 20:04 Partly Cloudy with Thunderstorms 76 24.4 59 15 56 56 W 7 11 29.81 1009 10 16 0.00 0.00
8:34 pm 20:34 Partly Cloudy with Nearby Thunderstorms 75 23.9 59 15 57 57 VRB 3 6 29.84 1010 10 16 0.00 0.00
8:53 pm 20:53 Clear 75 23.9 59 15 57 57 NNW 8 13 29.93 1014 10 16 0.00 0.00
9:53 pm 21:53 Mostly Clear 72 22.2 61 16.1 68 68 N 3 6 29.93 1014 10 16 0.00 0.00
10:53 pm 22:53 Mostly Cloudy with Light Rain 71 21.7 62 16.7 73 73 Calm 29.94 1014 10 16 0.01 0.13
11:53 pm 23:53 Partly Cloudy 69 20.6 64 17.8 84 84 E 7 11 29.96 1014 10 16 0.01 0.13

Powered by AerisWeather